Time,TemperatureF,DewpointF,PressureIn,WindDirection,WindDirectionDegrees,WindSpeedMPH,WindSpeedGustMPH,Humidity,HourlyPrecipIn,Conditions,Clouds,dailyrainin,SoftwareType,DateUTC
2013-06-19 00:02:00,58.6,57.5,29.98,WNW,291,0.0,1.0,96,0.00,,,0.00,Wunderground v.1.15,2013-06-19 04:02:00,
2013-06-19 00:04:00,58.6,57.5,29.98,WNW,291,0.0,1.0,96,0.00,,,0.00,Wunderground v.1.15,2013-06-19 04:04:00,
2013-06-19 00:06:00,58.5,57.4,29.98,WNW,296,0.0,1.0,96,0.00,,,0.00,Wunderground v.1.15,2013-06-19 04:06:00,
2013-06-19 00:12:00,58.4,57.3,29.98,WNW,296,0.0,0.0,96,0.00,,,0.00,Wunderground v.1.15,2013-06-19 04:12:00,
2013-06-19 00:16:00,58.4,57.3,29.98,WNW,296,0.0,0.0,96,0.00,,,0.00,Wunderground v.1.15,2013-06-19 04:16:00,
2013-06-19 00:22:00,58.4,57.3,29.98,WNW,296,0.0,0.0,96,0.00,,,0.00,Wunderground v.1.15,2013-06-19 04:22:00,
2013-06-19 00:28:00,58.4,57.3,29.98,WNW,296,0.0,0.0,96,0.00,,,0.00,Wunderground v.1.15,2013-06-19 04:28:00,
2013-06-19 00:34:00,58.4,57.3,29.98,NNE,14,0.0,0.0,96,0.00,,,0.00,Wunderground v.1.15,2013-06-19 04:34:00,
2013-06-19 00:40:00,58.3,57.2,29.98,NNE,15,0.0,0.0,96,0.00,,,0.00,Wunderground v.1.15,2013-06-19 04:40:00,
2013-06-19 00:46:00,58.2,57.1,29.98,West,278,0.0,0.0,96,0.00,,,0.00,Wunderground v.1.15,2013-06-19 04:46:00,
2013-06-19 00:52:00,58.1,57.0,29.97,West,278,0.0,0.0,96,0.00,,,0.00,Wunderground v.1.15,2013-06-19 04:52:00,
2013-06-19 00:58:00,58.0,56.9,29.97,NW,310,0.0,0.0,96,0.00,,,0.00,Wunderground v.1.15,2013-06-19 04:58:00,
2013-06-19 06:20:00,53.9,53.1,30.03,West,281,0.0,0.0,97,0.00,,,0.00,Wunderground v.1.15,2013-06-19 10:20:00,
2013-06-19 06:26:00,53.9,53.1,30.03,West,269,0.0,1.0,97,0.00,,,0.00,Wunderground v.1.15,2013-06-19 10:26:00,
2013-06-19 06:32:00,54.0,53.2,30.03,WNW,294,0.0,1.0,97,0.00,,,0.00,Wunderground v.1.15,2013-06-19 10:32:00,
2013-06-19 06:38:00,54.0,53.2,30.04,North,9,0.0,1.0,97,0.00,,,0.00,Wunderground v.1.15,2013-06-19 10:38:00,
2013-06-19 06:44:00,54.0,53.2,30.04,WNW,287,0.0,1.0,97,0.00,,,0.00,Wunderground v.1.15,2013-06-19 10:44:00,
2013-06-19 06:50:00,53.9,52.8,30.04,West,280,0.0,1.0,96,0.00,,,0.00,Wunderground v.1.15,2013-06-19 10:50:00,
2013-06-19 06:56:00,53.9,52.8,30.05,WNW,285,0.0,1.0,96,0.00,,,0.00,Wunderground v.1.15,2013-06-19 10:56:00,
2013-06-19 07:02:00,54.0,52.9,30.04,WNW,288,0.0,1.0,96,0.00,,,0.00,Wunderground v.1.15,2013-06-19 11:02:00,
2013-06-19 07:08:00,54.0,52.9,30.05,West,275,0.0,1.0,96,0.00,,,0.00,Wunderground v.1.15,2013-06-19 11:08:00,
2013-06-19 07:14:00,54.1,53.0,30.05,West,281,0.0,2.0,96,0.00,,,0.00,Wunderground v.1.15,2013-06-19 11:14:00,
2013-06-19 07:20:00,54.3,52.9,30.05,NW,311,0.0,1.0,95,0.00,,,0.00,Wunderground v.1.15,2013-06-19 11:20:00,
2013-06-19 07:26:00,54.5,52.8,30.06,WNW,285,1.0,1.0,94,0.00,,,0.00,Wunderground v.1.15,2013-06-19 11:26:00,
2013-06-19 07:32:00,55.0,53.3,30.06,WNW,288,1.0,1.0,94,0.00,,,0.00,Wunderground v.1.15,2013-06-19 11:32:00,
2013-06-19 07:38:00,55.4,53.4,30.06,West,266,1.0,1.0,93,0.00,,,0.00,Wunderground v.1.15,2013-06-19 11:38:00,
2013-06-19 07:44:00,55.6,53.3,30.06,NW,308,1.0,1.0,92,0.00,,,0.00,Wunderground v.1.15,2013-06-19 11:44:00,
2013-06-19 07:50:00,55.7,53.4,30.06,NW,326,1.0,1.0,92,0.00,,,0.00,Wunderground v.1.15,2013-06-19 11:50:00,
2013-06-19 07:56:00,55.7,53.1,30.07,WNW,284,1.0,1.0,91,0.00,,,0.00,Wunderground v.1.15,2013-06-19 11:56:00,
2013-06-19 08:02:00,55.9,53.6,30.07,WNW,284,1.0,2.0,92,0.00,,,0.00,Wunderground v.1.15,2013-06-19 12:02:00,
2013-06-19 08:08:00,56.5,53.9,30.07,NNE,14,0.0,2.0,91,0.00,,,0.00,Wunderground v.1.15,2013-06-19 12:08:00,
2013-06-19 08:14:00,57.1,53.6,30.08,NW,305,1.0,1.0,88,0.00,,,0.00,Wunderground v.1.15,2013-06-19 12:14:00,
2013-06-19 08:20:00,57.2,53.7,30.08,West,271,1.0,2.0,88,0.00,,,0.00,Wunderground v.1.15,2013-06-19 12:20:00,
2013-06-19 08:26:00,57.2,53.4,30.08,WNW,300,1.0,2.0,87,0.00,,,0.00,Wunderground v.1.15,2013-06-19 12:26:00,
2013-06-19 08:32:00,57.6,53.4,30.09,West,273,1.0,1.0,86,0.00,,,0.00,Wunderground v.1.15,2013-06-19 12:32:00,
2013-06-19 08:38:00,57.8,53.3,30.09,WNW,300,1.0,2.0,85,0.00,,,0.00,Wunderground v.1.15,2013-06-19 12:38:00,
2013-06-19 08:44:00,58.5,53.7,30.09,North,352,1.0,2.0,84,0.00,,,0.00,Wunderground v.1.15,2013-06-19 12:44:00,
2013-06-19 08:50:00,58.7,52.9,30.09,West,264,1.0,1.0,81,0.00,,,0.00,Wunderground v.1.15,2013-06-19 12:50:00,
2013-06-19 08:56:00,58.8,52.6,30.10,NW,324,1.0,3.0,80,0.00,,,0.00,Wunderground v.1.15,2013-06-19 12:56:00,
2013-06-19 09:02:00,59.5,53.3,30.10,NW,319,1.0,3.0,80,0.00,,,0.00,Wunderground v.1.15,2013-06-19 13:02:00,
2013-06-19 09:08:00,59.8,53.3,30.10,NNE,32,1.0,3.0,79,0.00,,,0.00,Wunderground v.1.15,2013-06-19 13:08:00,
2013-06-19 09:14:00,60.2,53.3,30.10,NE,41,1.0,1.0,78,0.00,,,0.00,Wunderground v.1.15,2013-06-19 13:14:00,
2013-06-19 09:20:00,60.6,53.7,30.10,North,353,1.0,1.0,78,0.00,,,0.00,Wunderground v.1.15,2013-06-19 13:20:00,
2013-06-19 09:26:00,61.2,53.6,30.10,ENE,65,1.0,2.0,76,0.00,,,0.00,Wunderground v.1.15,2013-06-19 13:26:00,
2013-06-19 09:32:00,61.3,53.3,30.10,NNE,29,1.0,2.0,75,0.00,,,0.00,Wunderground v.1.15,2013-06-19 13:32:00,
2013-06-19 09:38:00,62.0,54.0,30.10,NW,314,1.0,2.0,75,0.00,,,0.00,Wunderground v.1.15,2013-06-19 13:38:00,
2013-06-19 09:44:00,62.2,53.1,30.10,WNW,284,1.0,1.0,72,0.00,,,0.00,Wunderground v.1.15,2013-06-19 13:44:00,
2013-06-19 09:50:00,62.4,53.6,30.10,NE,45,1.0,2.0,73,0.00,,,0.00,Wunderground v.1.15,2013-06-19 13:50:00,
2013-06-19 09:56:00,62.7,53.2,30.11,NW,319,1.0,2.0,71,0.00,,,0.00,Wunderground v.1.15,2013-06-19 13:56:00,
2013-06-19 10:02:00,62.8,52.9,30.11,West,276,1.0,5.0,70,0.00,,,0.00,Wunderground v.1.15,2013-06-19 14:02:00,
2013-06-19 10:08:00,63.3,53.0,30.11,WSW,240,1.0,5.0,69,0.00,,,0.00,Wunderground v.1.15,2013-06-19 14:08:00,
2013-06-19 10:14:00,63.6,52.4,30.11,WNW,287,1.0,2.0,67,0.00,,,0.00,Wunderground v.1.15,2013-06-19 14:14:00,
2013-06-19 10:20:00,64.0,52.8,30.11,WNW,294,1.0,1.0,67,0.00,,,0.00,Wunderground v.1.15,2013-06-19 14:20:00,
2013-06-19 10:26:00,64.3,52.3,30.11,NNW,330,1.0,2.0,65,0.00,,,0.00,Wunderground v.1.15,2013-06-19 14:26:00,
2013-06-19 10:32:00,64.6,53.0,30.11,WSW,253,2.0,2.0,66,0.00,,,0.00,Wunderground v.1.15,2013-06-19 14:32:00,
2013-06-19 10:38:00,65.1,52.6,30.12,NNW,345,1.0,2.0,64,0.00,,,0.00,Wunderground v.1.15,2013-06-19 14:38:00,
2013-06-19 10:44:00,65.6,53.1,30.12,WNW,297,1.0,1.0,64,0.00,,,0.00,Wunderground v.1.15,2013-06-19 14:44:00,
2013-06-19 10:50:00,65.8,53.3,30.12,West,267,1.0,2.0,64,0.00,,,0.00,Wunderground v.1.15,2013-06-19 14:50:00,
2013-06-19 10:56:00,66.2,54.1,30.12,NW,311,1.0,2.0,65,0.00,,,0.00,Wunderground v.1.15,2013-06-19 14:56:00,
2013-06-19 11:02:00,66.4,51.6,30.12,North,355,1.0,2.0,59,0.00,,,0.00,Wunderground v.1.15,2013-06-19 15:02:00,
2013-06-19 11:08:00,66.8,52.0,30.12,NNE,30,1.0,3.0,59,0.00,,,0.00,Wunderground v.1.15,2013-06-19 15:08:00,
2013-06-19 11:14:00,66.8,53.4,30.12,WNW,292,1.0,4.0,62,0.00,,,0.00,Wunderground v.1.15,2013-06-19 15:14:00,
2013-06-19 11:20:00,67.0,52.7,30.12,West,263,2.0,2.0,60,0.00,,,0.00,Wunderground v.1.15,2013-06-19 15:20:00,
2013-06-19 11:26:00,67.6,53.7,30.12,NNE,14,1.0,2.0,61,0.00,,,0.00,Wunderground v.1.15,2013-06-19 15:26:00,
2013-06-19 11:32:00,67.7,53.3,30.13,SE,141,1.0,1.0,60,0.00,,,0.00,Wunderground v.1.15,2013-06-19 15:32:00,
2013-06-19 11:38:00,67.8,51.0,30.12,NW,311,2.0,2.0,55,0.00,,,0.00,Wunderground v.1.15,2013-06-19 15:38:00,
2013-06-19 11:44:00,68.3,51.5,30.12,ENE,71,1.0,1.0,55,0.00,,,0.00,Wunderground v.1.15,2013-06-19 15:44:00,
2013-06-19 11:50:00,68.7,52.8,30.12,WNW,297,2.0,2.0,57,0.00,,,0.00,Wunderground v.1.15,2013-06-19 15:50:00,
2013-06-19 11:56:00,68.8,52.5,30.12,West,281,2.0,2.0,56,0.00,,,0.00,Wunderground v.1.15,2013-06-19 15:56:00,
2013-06-19 12:02:00,69.0,52.6,30.12,NNE,14,1.0,5.0,56,0.00,,,0.00,Wunderground v.1.15,2013-06-19 16:02:00,
2013-06-19 12:08:00,69.1,51.2,30.12,NE,37,2.0,7.0,53,0.00,,,0.00,Wunderground v.1.15,2013-06-19 16:08:00,
2013-06-19 12:14:00,68.9,48.4,30.12,West,276,2.0,3.0,48,0.00,,,0.00,Wunderground v.1.15,2013-06-19 16:14:00,
2013-06-19 12:20:00,69.0,48.5,30.12,North,2,2.0,2.0,48,0.00,,,0.00,Wunderground v.1.15,2013-06-19 16:20:00,
2013-06-19 12:26:00,69.3,49.3,30.12,NW,319,2.0,2.0,49,0.00,,,0.00,Wunderground v.1.15,2013-06-19 16:26:00,
2013-06-19 12:32:00,69.0,49.0,30.12,WNW,295,2.0,8.0,49,0.00,,,0.00,Wunderground v.1.15,2013-06-19 16:32:00,
2013-06-19 12:38:00,69.3,49.3,30.12,West,263,2.0,8.0,49,0.00,,,0.00,Wunderground v.1.15,2013-06-19 16:38:00,
2013-06-19 12:44:00,69.4,48.9,30.12,West,264,2.0,4.0,48,0.00,,,0.00,Wunderground v.1.15,2013-06-19 16:44:00,
2013-06-19 12:50:00,69.2,47.5,30.13,WNW,300,3.0,3.0,46,0.00,,,0.00,Wunderground v.1.15,2013-06-19 16:50:00,
2013-06-19 12:56:00,69.2,48.7,30.13,NE,51,2.0,5.0,48,0.00,,,0.00,Wunderground v.1.15,2013-06-19 16:56:00,
2013-06-19 13:02:00,69.7,48.0,30.12,ENE,75,2.0,8.0,46,0.00,,,0.00,Wunderground v.1.15,2013-06-19 17:02:00,
2013-06-19 13:08:00,70.1,47.8,30.12,NW,308,2.0,8.0,45,0.00,,,0.00,Wunderground v.1.15,2013-06-19 17:08:00,
2013-06-19 13:14:00,70.1,48.9,30.12,North,6,2.0,2.0,47,0.00,,,0.00,Wunderground v.1.15,2013-06-19 17:14:00,
2013-06-19 13:20:00,70.0,46.5,30.12,WSW,255,1.0,1.0,43,0.00,,,0.00,Wunderground v.1.15,2013-06-19 17:20:00,
2013-06-19 13:26:00,70.4,48.0,30.12,NNE,27,1.0,2.0,45,0.00,,,0.00,Wunderground v.1.15,2013-06-19 17:26:00,
2013-06-19 13:32:00,70.5,46.9,30.12,NW,323,2.0,2.0,43,0.00,,,0.00,Wunderground v.1.15,2013-06-19 17:32:00,
2013-06-19 13:38:00,70.5,46.3,30.12,West,278,2.0,2.0,42,0.00,,,0.00,Wunderground v.1.15,2013-06-19 17:38:00,
2013-06-19 13:44:00,70.2,47.3,30.12,NNW,346,2.0,5.0,44,0.00,,,0.00,Wunderground v.1.15,2013-06-19 17:44:00,
2013-06-19 13:50:00,70.8,49.6,30.12,WNW,300,2.0,2.0,47,0.00,,,0.00,Wunderground v.1.15,2013-06-19 17:50:00,
2013-06-19 13:56:00,71.1,48.7,30.12,West,266,2.0,3.0,45,0.00,,,0.00,Wunderground v.1.15,2013-06-19 17:56:00,
2013-06-19 14:02:00,70.8,46.6,30.12,NW,311,2.0,8.0,42,0.00,,,0.00,Wunderground v.1.15,2013-06-19 18:02:00,
2013-06-19 14:08:00,70.7,45.8,30.12,ESE,111,2.0,8.0,41,0.00,,,0.00,Wunderground v.1.15,2013-06-19 18:08:00,
2013-06-19 14:14:00,71.0,49.2,30.13,WNW,283,2.0,2.0,46,0.00,,,0.00,Wunderground v.1.15,2013-06-19 18:14:00,
2013-06-19 14:20:00,71.0,47.4,30.13,NNW,338,2.0,2.0,43,0.00,,,0.00,Wunderground v.1.15,2013-06-19 18:20:00,
2013-06-19 14:26:00,71.1,47.5,30.13,SSW,200,3.0,3.0,43,0.00,,,0.00,Wunderground v.1.15,2013-06-19 18:26:00,
2013-06-19 14:32:00,71.3,47.0,30.13,WNW,295,2.0,2.0,42,0.00,,,0.00,Wunderground v.1.15,2013-06-19 18:32:00,
2013-06-19 14:38:00,71.4,47.1,30.13,North,10,1.0,2.0,42,0.00,,,0.00,Wunderground v.1.15,2013-06-19 18:38:00,
2013-06-19 14:44:00,71.6,49.7,30.13,ENE,72,1.0,2.0,46,0.00,,,0.00,Wunderground v.1.15,2013-06-19 18:44:00,
2013-06-19 14:50:00,71.8,48.7,30.13,West,266,1.0,1.0,44,0.00,,,0.00,Wunderground v.1.15,2013-06-19 18:50:00,
2013-06-19 14:56:00,72.3,49.2,30.13,SW,231,1.0,5.0,44,0.00,,,0.00,Wunderground v.1.15,2013-06-19 18:56:00,
2013-06-19 15:02:00,72.1,47.7,30.13,North,4,1.0,5.0,42,0.00,,,0.00,Wunderground v.1.15,2013-06-19 19:02:00,
2013-06-19 15:08:00,71.7,46.1,30.13,NNW,341,2.0,7.0,40,0.00,,,0.00,Wunderground v.1.15,2013-06-19 19:08:00,
2013-06-19 15:14:00,71.9,46.9,30.13,WSW,244,1.0,2.0,41,0.00,,,0.00,Wunderground v.1.15,2013-06-19 19:14:00,
2013-06-19 15:20:00,72.0,46.3,30.13,West,281,2.0,2.0,40,0.00,,,0.00,Wunderground v.1.15,2013-06-19 19:20:00,
2013-06-19 15:26:00,72.1,46.4,30.13,NNE,13,2.0,2.0,40,0.00,,,0.00,Wunderground v.1.15,2013-06-19 19:26:00,
2013-06-19 15:32:00,71.7,46.7,30.13,WSW,252,2.0,3.0,41,0.00,,,0.00,Wunderground v.1.15,2013-06-19 19:32:00,
2013-06-19 15:38:00,72.0,47.0,30.13,North,6,2.0,3.0,41,0.00,,,0.00,Wunderground v.1.15,2013-06-19 19:38:00,
2013-06-19 15:44:00,72.2,48.5,30.13,North,351,2.0,2.0,43,0.00,,,0.00,Wunderground v.1.15,2013-06-19 19:44:00,
2013-06-19 15:50:00,72.1,47.1,30.13,NNE,27,2.0,2.0,41,0.00,,,0.00,Wunderground v.1.15,2013-06-19 19:50:00,
2013-06-19 15:56:00,72.6,47.5,30.13,East,85,1.0,2.0,41,0.00,,,0.00,Wunderground v.1.15,2013-06-19 19:56:00,
2013-06-19 16:02:00,72.5,45.4,30.13,West,265,1.0,6.0,38,0.00,,,0.00,Wunderground v.1.15,2013-06-19 20:02:00,
2013-06-19 16:08:00,73.0,47.2,30.13,NNW,327,1.0,6.0,40,0.00,,,0.00,Wunderground v.1.15,2013-06-19 20:08:00,
2013-06-19 16:14:00,73.0,47.2,30.13,NW,309,1.0,2.0,40,0.00,,,0.00,Wunderground v.1.15,2013-06-19 20:14:00,
2013-06-19 16:20:00,72.6,48.2,30.13,NNE,21,2.0,2.0,42,0.00,,,0.00,Wunderground v.1.15,2013-06-19 20:20:00,
2013-06-19 16:26:00,73.0,48.5,30.13,North,355,1.0,2.0,42,0.00,,,0.00,Wunderground v.1.15,2013-06-19 20:26:00,
2013-06-19 16:32:00,73.3,47.5,30.12,NNE,27,0.0,2.0,40,0.00,,,0.00,Wunderground v.1.15,2013-06-19 20:32:00,
2013-06-19 16:38:00,73.2,50.0,30.12,SW,224,1.0,2.0,44,0.00,,,0.00,Wunderground v.1.15,2013-06-19 20:38:00,
2013-06-19 16:44:00,72.9,49.7,30.12,NW,321,1.0,1.0,44,0.00,,,0.00,Wunderground v.1.15,2013-06-19 20:44:00,
2013-06-19 16:50:00,72.9,47.2,30.12,NNW,336,1.0,1.0,40,0.00,,,0.00,Wunderground v.1.15,2013-06-19 20:50:00,
2013-06-19 16:56:00,72.9,47.8,30.12,WSW,253,1.0,1.0,41,0.00,,,0.00,Wunderground v.1.15,2013-06-19 20:56:00,
2013-06-19 17:02:00,72.9,47.2,30.12,NW,321,2.0,7.0,40,0.00,,,0.00,Wunderground v.1.15,2013-06-19 21:02:00,
2013-06-19 17:08:00,72.4,47.4,30.12,East,81,2.0,7.0,41,0.00,,,0.00,Wunderground v.1.15,2013-06-19 21:08:00,
2013-06-19 17:14:00,72.1,47.1,30.12,NE,48,1.0,2.0,41,0.00,,,0.00,Wunderground v.1.15,2013-06-19 21:14:00,
2013-06-19 17:20:00,72.0,47.6,30.12,ESE,108,1.0,3.0,42,0.00,,,0.00,Wunderground v.1.15,2013-06-19 21:20:00,
2013-06-19 17:26:00,71.9,50.6,30.13,NW,311,1.0,3.0,47,0.00,,,0.00,Wunderground v.1.15,2013-06-19 21:26:00,
2013-06-19 17:32:00,72.0,48.3,30.12,NE,37,1.0,1.0,43,0.00,,,0.00,Wunderground v.1.15,2013-06-19 21:32:00,
2013-06-19 17:38:00,71.8,48.1,30.13,NE,51,1.0,1.0,43,0.00,,,0.00,Wunderground v.1.15,2013-06-19 21:38:00,
2013-06-19 17:44:00,71.6,47.3,30.12,NNE,29,1.0,2.0,42,0.00,,,0.00,Wunderground v.1.15,2013-06-19 21:44:00,
2013-06-19 17:50:00,71.5,48.4,30.12,NNE,25,1.0,1.0,44,0.00,,,0.00,Wunderground v.1.15,2013-06-19 21:50:00,
2013-06-19 17:56:00,71.6,47.9,30.12,West,266,1.0,1.0,43,0.00,,,0.00,Wunderground v.1.15,2013-06-19 21:56:00,
2013-06-19 18:02:00,71.4,48.9,30.12,West,266,0.0,6.0,45,0.00,,,0.00,Wunderground v.1.15,2013-06-19 22:02:00,
2013-06-19 18:08:00,71.1,50.4,30.12,West,263,0.0,6.0,48,0.00,,,0.00,Wunderground v.1.15,2013-06-19 22:08:00,
2013-06-19 18:14:00,70.9,49.7,30.12,West,273,0.0,0.0,47,0.00,,,0.00,Wunderground v.1.15,2013-06-19 22:14:00,
2013-06-19 18:20:00,70.7,51.1,30.12,WNW,296,0.0,0.0,50,0.00,,,0.00,Wunderground v.1.15,2013-06-19 22:20:00,
2013-06-19 18:26:00,70.4,50.9,30.13,WNW,282,0.0,1.0,50,0.00,,,0.00,Wunderground v.1.15,2013-06-19 22:26:00,
2013-06-19 18:32:00,70.3,51.3,30.13,West,263,0.0,1.0,51,0.00,,,0.00,Wunderground v.1.15,2013-06-19 22:32:00,
2013-06-19 18:38:00,70.2,49.0,30.13,North,359,0.0,1.0,47,0.00,,,0.00,Wunderground v.1.15,2013-06-19 22:38:00,
2013-06-19 18:44:00,70.1,50.0,30.13,North,359,0.0,0.0,49,0.00,,,0.00,Wunderground v.1.15,2013-06-19 22:44:00,
2013-06-19 18:50:00,69.7,50.8,30.13,North,359,0.0,0.0,51,0.00,,,0.00,Wunderground v.1.15,2013-06-19 22:50:00,
2013-06-19 18:56:00,69.5,50.6,30.13,NNE,28,0.0,0.0,51,0.00,,,0.00,Wunderground v.1.15,2013-06-19 22:56:00,
2013-06-19 19:02:00,69.1,50.7,30.13,NE,34,0.0,3.0,52,0.00,,,0.00,Wunderground v.1.15,2013-06-19 23:02:00,
2013-06-19 19:08:00,68.8,51.0,30.14,SE,126,0.0,3.0,53,0.00,,,0.00,Wunderground v.1.15,2013-06-19 23:08:00,
2013-06-19 19:14:00,68.6,51.3,30.14,SE,127,0.0,0.0,54,0.00,,,0.00,Wunderground v.1.15,2013-06-19 23:14:00,
2013-06-19 19:20:00,68.0,50.7,30.14,ESE,115,0.0,0.0,54,0.00,,,0.00,Wunderground v.1.15,2013-06-19 23:20:00,
2013-06-19 19:26:00,67.8,51.0,30.14,ESE,115,0.0,1.0,55,0.00,,,0.00,Wunderground v.1.15,2013-06-19 23:26:00,
2013-06-19 19:32:00,67.5,51.7,30.14,ESE,115,0.0,0.0,57,0.00,,,0.00,Wunderground v.1.15,2013-06-19 23:32:00,
2013-06-19 19:38:00,66.8,52.0,30.14,ESE,115,0.0,0.0,59,0.00,,,0.00,Wunderground v.1.15,2013-06-19 23:38:00,
2013-06-19 19:44:00,66.3,53.3,30.15,ESE,115,0.0,0.0,63,0.00,,,0.00,Wunderground v.1.15,2013-06-19 23:44:00,
2013-06-19 19:50:00,65.8,52.9,30.15,ESE,114,0.0,0.0,63,0.00,,,0.00,Wunderground v.1.15,2013-06-19 23:50:00,
2013-06-19 19:56:00,65.4,53.3,30.15,SE,134,0.0,0.0,65,0.00,,,0.00,Wunderground v.1.15,2013-06-19 23:56:00,
2013-06-19 20:02:00,65.0,52.9,30.15,SE,134,0.0,2.0,65,0.00,,,0.00,Wunderground v.1.15,2013-06-20 00:02:00,
2013-06-19 20:08:00,64.5,53.3,30.15,SE,134,0.0,2.0,67,0.00,,,0.00,Wunderground v.1.15,2013-06-20 00:08:00,
2013-06-19 20:14:00,63.9,53.9,30.16,SE,131,0.0,0.0,70,0.00,,,0.00,Wunderground v.1.15,2013-06-20 00:14:00,
2013-06-19 20:20:00,63.3,53.3,30.16,SE,131,0.0,0.0,70,0.00,,,0.00,Wunderground v.1.15,2013-06-20 00:20:00,
2013-06-19 20:26:00,62.7,53.2,30.16,ESE,105,0.0,0.0,71,0.00,,,0.00,Wunderground v.1.15,2013-06-20 00:26:00,
2013-06-19 20:34:00,61.8,52.7,30.16,ESE,103,0.0,0.0,72,0.00,,,0.00,Wunderground v.1.15,2013-06-20 00:34:00,
2013-06-19 20:40:00,61.5,52.0,30.17,ESE,104,0.0,0.0,71,0.00,,,0.00,Wunderground v.1.15,2013-06-20 00:40:00,
2013-06-19 20:46:00,61.1,52.0,30.17,ESE,104,0.0,0.0,72,0.00,,,0.00,Wunderground v.1.15,2013-06-20 00:46:00,
2013-06-19 20:52:00,60.8,51.7,30.17,ESE,103,0.0,0.0,72,0.00,,,0.00,Wunderground v.1.15,2013-06-20 00:52:00,
2013-06-19 20:58:00,60.5,51.4,30.17,ESE,103,0.0,0.0,72,0.00,,,0.00,Wunderground v.1.15,2013-06-20 00:58:00,
2013-06-19 21:04:00,60.2,51.5,30.18,ESE,103,0.0,1.0,73,0.00,,,0.00,Wunderground v.1.15,2013-06-20 01:04:00,
2013-06-19 21:10:00,59.8,51.5,30.18,ESE,103,0.0,0.0,74,0.00,,,0.00,Wunderground v.1.15,2013-06-20 01:10:00,
2013-06-19 21:16:00,59.3,51.0,30.18,ESE,103,0.0,1.0,74,0.00,,,0.00,Wunderground v.1.15,2013-06-20 01:16:00,
2013-06-19 21:22:00,59.2,50.9,30.18,ESE,103,0.0,0.0,74,0.00,,,0.00,Wunderground v.1.15,2013-06-20 01:22:00,
2013-06-19 21:28:00,59.1,50.5,30.18,ESE,103,0.0,0.0,73,0.00,,,0.00,Wunderground v.1.15,2013-06-20 01:28:00,
2013-06-19 21:34:00,59.1,50.5,30.19,ESE,103,0.0,0.0,73,0.00,,,0.00,Wunderground v.1.15,2013-06-20 01:34:00,
2013-06-19 21:40:00,58.7,50.1,30.19,East,98,0.0,0.0,73,0.00,,,0.00,Wunderground v.1.15,2013-06-20 01:40:00,
2013-06-19 21:46:00,58.6,50.0,30.19,East,99,0.0,0.0,73,0.00,,,0.00,Wunderground v.1.15,2013-06-20 01:46:00,
2013-06-19 21:52:00,58.5,49.9,30.19,East,100,0.0,0.0,73,0.00,,,0.00,Wunderground v.1.15,2013-06-20 01:52:00,
2013-06-19 21:58:00,58.5,49.9,30.20,East,100,1.0,1.0,73,0.00,,,0.00,Wunderground v.1.15,2013-06-20 01:58:00,
2013-06-19 22:04:00,58.3,50.0,30.20,East,99,0.0,1.0,74,0.00,,,0.00,Wunderground v.1.15,2013-06-20 02:04:00,
2013-06-19 22:10:00,58.0,49.8,30.20,East,100,0.0,0.0,74,0.00,,,0.00,Wunderground v.1.15,2013-06-20 02:10:00,
2013-06-19 22:16:00,57.8,49.9,30.20,East,100,0.0,0.0,75,0.00,,,0.00,Wunderground v.1.15,2013-06-20 02:16:00,
2013-06-19 22:22:00,57.8,49.2,30.21,East,99,0.0,0.0,73,0.00,,,0.00,Wunderground v.1.15,2013-06-20 02:22:00,
2013-06-19 22:28:00,57.8,49.6,30.21,East,100,0.0,1.0,74,0.00,,,0.00,Wunderground v.1.15,2013-06-20 02:28:00,
2013-06-19 22:34:00,57.5,48.9,30.21,East,98,0.0,1.0,73,0.00,,,0.00,Wunderground v.1.15,2013-06-20 02:34:00,
2013-06-19 22:40:00,57.6,49.0,30.21,East,99,1.0,1.0,73,0.00,,,0.00,Wunderground v.1.15,2013-06-20 02:40:00,
2013-06-19 22:46:00,57.5,48.5,30.21,East,100,1.0,1.0,72,0.00,,,0.00,Wunderground v.1.15,2013-06-20 02:46:00,
2013-06-19 22:52:00,57.6,48.6,30.22,East,100,1.0,1.0,72,0.00,,,0.00,Wunderground v.1.15,2013-06-20 02:52:00,
2013-06-19 22:58:00,57.6,48.6,30.22,East,100,0.0,1.0,72,0.00,,,0.00,Wunderground v.1.15,2013-06-20 02:58:00,
2013-06-19 23:04:00,57.6,49.0,30.22,East,100,1.0,1.0,73,0.00,,,0.00,Wunderground v.1.15,2013-06-20 03:04:00,
2013-06-19 23:10:00,57.5,48.9,30.22,East,100,1.0,1.0,73,0.00,,,0.00,Wunderground v.1.15,2013-06-20 03:10:00,
2013-06-19 23:16:00,57.7,49.5,30.22,East,100,1.0,1.0,74,0.00,,,0.00,Wunderground v.1.15,2013-06-20 03:16:00,
2013-06-19 23:22:00,58.0,49.0,30.22,ESE,110,1.0,1.0,72,0.00,,,0.00,Wunderground v.1.15,2013-06-20 03:22:00,
2013-06-19 23:28:00,58.6,47.7,30.22,ESE,114,1.0,1.0,67,0.00,,,0.00,Wunderground v.1.15,2013-06-20 03:28:00,
2013-06-19 23:34:00,58.7,48.9,30.23,ESE,113,1.0,1.0,70,0.00,,,0.00,Wunderground v.1.15,2013-06-20 03:34:00,
2013-06-19 23:40:00,58.3,49.7,30.23,ESE,106,0.0,1.0,73,0.00,,,0.00,Wunderground v.1.15,2013-06-20 03:40:00,
2013-06-19 23:46:00,57.9,49.3,30.23,ESE,105,1.0,1.0,73,0.00,,,0.00,Wunderground v.1.15,2013-06-20 03:46:00,
2013-06-19 23:52:00,57.7,49.5,30.23,ESE,105,1.0,1.0,74,0.00,,,0.00,Wunderground v.1.15,2013-06-20 03:52:00,
2013-06-19 23:58:00,57.6,49.0,30.23,ESE,105,1.0,1.0,73,0.00,,,0.00,Wunderground v.1.15,2013-06-20 03:58:00,